Weather Roundup
Issued by NWS Chicago, IL

Home | Current Version | Previous Version | Graphics & Text | Print | Product List | Glossary On
Versions: 1 2 3 4 5 6 7 8 9 10 11 12 13 14 15 16 17 18 19 20 21 22 23 24 25 26 27 28 29 30 31 32 33 34 35 36 37 38 39 40 41 42 43 44 45 46 47 48 49 50
000
NZUS59 KLOT 281204
HRRLOT

CHICAGO AREA WEATHER ROUNDUP
NATIONAL WEATHER SERVICE CHICAGO/ROMEOVILLE IL
700 AM CDT FRI JUL 28 2017

NOTE: "FAIR" INDICATES FEW OR NO CLOUDS BELOW 12,000 FEET WITH NO
SIGNIFICANT WEATHER AND/OR OBSTRUCTIONS TO VISIBILITY.

* THESE STATIONS ARE NOT UNDER NWS QUALITY CONTROL. THEY ALSO MAY NOT
  REPORT WEATHER SUCH AS PRECIPITATION OR FOG.

ILZ005-006-012>014-019>023-281300-
NORTHEAST ILLINOIS

CITY           SKY/WX    TMP DP  RH WIND       PRES   REMARKS
OHARE          PTSUNNY   71  64  78 N13       29.97R
6HR MIN TEMP:  69; 6HR MAX TEMP:  71;

MIDWAY         PTSUNNY   72  66  81 NE14      29.96R
6HR MIN TEMP:  70; 6HR MAX TEMP:  72;

AURORA         SUNNY     66  63  90 N12       29.98R
6HR MIN TEMP:  62; 6HR MAX TEMP:  66;

LANSING*       MOSUNNY   70  64  81 CALM      29.94S
JOLIET*        SUNNY     70  66  89 N10       29.96R
WAUKEGAN       MOSUNNY   68  64  87 NE12      29.99R
6HR MIN TEMP:  67; 6HR MAX TEMP:  69;

DUPAGE AIRPORT MOSUNNY   65  64  97 N9        29.97R
6HR MIN TEMP:  62; 6HR MAX TEMP:  65;

WHEELING       MOSUNNY   69  66  90 N10       29.99R
6HR MIN TEMP:  67; 6HR MAX TEMP:  69;

MORRIS*        SUNNY     65  63  91 N3        29.95R
LEWIS AIRPORT* SUNNY     68  63  84 N13       29.96R
$$

WIZ051-052-058>065-066-070>072-281300-
SOUTHEAST WISCONSIN

CITY           SKY/WX    TMP DP  RH WIND       PRES   REMARKS
MILWAUKEE      MOSUNNY   67  63  87 N14       30.01S
6HR MIN TEMP:  66; 6HR MAX TEMP:  69;

KENOSHA*       PTSUNNY   67  63  87 N13G20    30.01R
RACINE*        CLOUDY    67  65  93 N13       30.02S
WAUKESHA       SUNNY     61  57  88 N6        30.03F
$$

INZ001>003-010>013-019-020-281300-
NORTHWEST INDIANA

CITY           SKY/WX    TMP DP  RH WIND       PRES   REMARKS
GARY*          PTSUNNY   72  64  78 NE8       29.95R
MICHIGAN CITY* NOT AVBL
RENSSELAER*    NOT AVBL
VALPARAISO     PTSUNNY   69  64  84 NE9       29.94R
$$

LMZ740>746-281300-
SOUTHERN LAKE MICHIGAN

STATION/POSITION TIME  SKY/WX   TEMP WIND        PRES    VSBY
                                AIR  DIR/SP/G
                 (UTC)          (F)  (DEG/KT/KT) (MB)    (MI)
HARRISON CRIB    1140            72   30/ 15/ 16   N/A
BURNHAM HARBOR   1200            72                N/A
CALUMET HARBOR   1130            72   20/  9/ 12 1013.8R
BURNS HARBOR     1140            69   90/  9/ 14 1014.2R
MICHIGAN CITY    1140            67   70/  7/  8   N/A
$$

ABBREVIATIONS USED IN REMARKS
   TC - TEMPERATURE IN CELSIUS
  WCI - WIND CHILL INDEX
   HX - HEAT INDEX
  VSB - VISIBILITY
$$




USA.gov is the U.S. government's official web portal to all federal, state and local government web resources and services.